Voltar ao catálogo

LEMUR-2-STAS-GORBUK

AtivoMeteoSSO
NORAD 66686·PAYLOAD·🇺🇸 United States

Lançado Nov 28, 2025 de Vandenberg Space Force Base

Loading…

Próximas Passagens (próximas 24 horas)

TLE

AtualizadoSource: Space-Track

Época: Sep 14, 2026, 03:32 UTC

1 66686U 25276W   26257.14775885  .00004844  00000-0  22681-3 0  9993
2 66686  97.4172 329.2081 0006292  57.7973 302.3872 15.20178141 43929

Acompanhe LEMUR-2-STAS-GORBUK em tempo real com AllMySat

Download on the App Store